TimeEDT,TemperatureF,Dew PointF,Humidity,Sea Level PressureIn,VisibilityMPH,Wind Direction,Wind SpeedMPH,Gust SpeedMPH,PrecipitationIn,Events,Conditions,WindDirDegrees,DateUTC
12:15 AM,69.3,69.3,100,30.27,5.0,Calm,Calm,-,N/A,,Overcast,0,2013-07-18 04:15:00
12:35 AM,69.4,69.4,100,30.28,0.8,Calm,Calm,-,N/A,,Overcast,0,2013-07-18 04:35:00
12:55 AM,69.6,69.6,100,30.26,0.2,Calm,Calm,-,N/A,,Overcast,0,2013-07-18 04:55:00
1:15 AM,69.3,69.3,100,30.25,5.0,WNW,3.5,-,N/A,,Overcast,300,2013-07-18 05:15:00
1:35 AM,69.3,69.3,100,30.24,4.0,Calm,Calm,-,N/A,,Mostly Cloudy,0,2013-07-18 05:35:00
1:55 AM,69.1,69.1,100,30.22,0.2,Calm,Calm,-,N/A,,Mostly Cloudy,0,2013-07-18 05:55:00
2:15 AM,69.1,69.1,100,30.22,1.5,Calm,Calm,-,N/A,,Unknown,0,2013-07-18 06:15:00
2:35 AM,69.1,69.1,100,30.21,1.8,Calm,Calm,-,N/A,,Scattered Clouds,0,2013-07-18 06:35:00
2:55 AM,68.9,68.9,100,30.20,0.2,Calm,Calm,-,N/A,,Mostly Cloudy,0,2013-07-18 06:55:00
3:15 AM,68.7,68.7,100,30.20,1.2,Calm,Calm,-,N/A,,Scattered Clouds,0,2013-07-18 07:15:00
3:35 AM,68.7,68.7,100,30.20,1.0,Calm,Calm,-,N/A,,Scattered Clouds,0,2013-07-18 07:35:00
3:55 AM,68.5,68.5,100,30.19,0.2,Calm,Calm,-,N/A,,Overcast,0,2013-07-18 07:55:00
4:15 AM,68.2,68.2,100,30.18,0.2,Calm,Calm,-,N/A,,Mostly Cloudy,0,2013-07-18 08:15:00
4:35 AM,68.2,68.2,100,30.17,0.5,Calm,Calm,-,N/A,,Unknown,0,2013-07-18 08:35:00
4:55 AM,68.0,68.0,100,30.17,0.2,Calm,Calm,-,N/A,,Unknown,0,2013-07-18 08:55:00
5:15 AM,68.0,68.0,100,30.18,0.2,ENE,3.5,-,N/A,,Unknown,60,2013-07-18 09:15:00
5:35 AM,68.4,68.4,100,30.18,0.2,Calm,Calm,-,N/A,,Unknown,0,2013-07-18 09:35:00
5:55 AM,68.2,68.2,100,30.18,1.8,Calm,Calm,-,N/A,,Unknown,0,2013-07-18 09:55:00
6:15 AM,68.0,68.0,100,30.19,3.0,Calm,Calm,-,N/A,,Clear,0,2013-07-18 10:15:00
6:35 AM,67.5,67.5,100,30.19,2.5,Calm,Calm,-,N/A,,Clear,0,2013-07-18 10:35:00
6:55 AM,67.3,67.3,100,30.20,1.2,Calm,Calm,-,N/A,,Unknown,0,2013-07-18 10:55:00
7:15 AM,68.0,68.0,100,30.21,1.2,Calm,Calm,-,N/A,,Unknown,0,2013-07-18 11:15:00
7:35 AM,68.5,68.5,100,30.21,2.0,Calm,Calm,-,N/A,,Clear,0,2013-07-18 11:35:00
7:55 AM,69.8,69.8,100,30.22,5.0,Calm,Calm,-,N/A,,Clear,0,2013-07-18 11:55:00
8:15 AM,70.9,70.9,100,30.22,7.0,Calm,Calm,-,N/A,,Scattered Clouds,0,2013-07-18 12:15:00
8:35 AM,72.1,72.1,100,30.23,10.0,Calm,Calm,-,N/A,,Scattered Clouds,0,2013-07-18 12:35:00
8:55 AM,73.2,73.2,100,30.23,10.0,Calm,Calm,-,N/A,,Mostly Cloudy,0,2013-07-18 12:55:00
9:15 AM,74.5,73.8,98,30.23,10.0,Calm,Calm,-,N/A,,Scattered Clouds,0,2013-07-18 13:15:00
9:35 AM,76.3,74.1,93,30.23,10.0,Calm,Calm,-,N/A,,Scattered Clouds,0,2013-07-18 13:35:00
9:55 AM,75.7,73.4,92,30.23,10.0,Calm,Calm,-,N/A,,Scattered Clouds,0,2013-07-18 13:55:00
10:15 AM,77.2,74.3,91,30.23,10.0,Calm,Calm,-,N/A,,Mostly Cloudy,0,2013-07-18 14:15:00
10:35 AM,78.4,73.2,84,30.23,10.0,Calm,Calm,-,N/A,,Scattered Clouds,0,2013-07-18 14:35:00
10:55 AM,78.6,73.4,84,30.23,10.0,Calm,Calm,-,N/A,,Scattered Clouds,0,2013-07-18 14:55:00
11:15 AM,80.6,74.3,81,30.23,10.0,Calm,Calm,-,N/A,,Scattered Clouds,0,2013-07-18 15:15:00
11:35 AM,80.8,73.8,79,30.23,10.0,Calm,Calm,-,N/A,,Scattered Clouds,0,2013-07-18 15:35:00
11:55 AM,82.4,73.8,75,30.23,10.0,WSW,3.5,-,N/A,,Clear,250,2013-07-18 15:55:00
12:15 PM,81.7,74.3,78,30.22,10.0,Calm,Calm,-,N/A,,Clear,0,2013-07-18 16:15:00
12:35 PM,83.5,74.8,75,30.22,10.0,Calm,Calm,-,N/A,,Clear,0,2013-07-18 16:35:00
12:55 PM,83.1,74.1,74,30.21,10.0,Calm,Calm,-,N/A,,Clear,0,2013-07-18 16:55:00
1:15 PM,84.6,74.8,72,30.21,10.0,SSW,3.5,-,N/A,,Scattered Clouds,200,2013-07-18 17:15:00
1:35 PM,84.4,73.9,71,30.21,10.0,Calm,Calm,-,N/A,,Clear,0,2013-07-18 17:35:00
1:55 PM,85.6,74.7,70,30.20,10.0,Calm,Calm,-,N/A,,Clear,0,2013-07-18 17:55:00
2:15 PM,84.9,75.7,74,30.20,10.0,Calm,Calm,-,N/A,,Clear,0,2013-07-18 18:15:00
2:35 PM,84.7,75.2,73,30.19,10.0,Calm,Calm,-,N/A,,Scattered Clouds,0,2013-07-18 18:35:00
2:55 PM,86.2,74.8,69,30.18,10.0,Calm,Calm,-,N/A,,Scattered Clouds,0,2013-07-18 18:55:00
3:15 PM,83.8,75.2,75,30.17,10.0,Calm,Calm,-,N/A,,Mostly Cloudy,0,2013-07-18 19:15:00
3:35 PM,85.8,74.7,69,30.16,10.0,Calm,Calm,-,N/A,,Scattered Clouds,0,2013-07-18 19:35:00
3:55 PM,86.5,75.2,69,30.15,10.0,Calm,Calm,-,N/A,,Scattered Clouds,0,2013-07-18 19:55:00
4:15 PM,86.4,75.2,69,30.15,10.0,Calm,Calm,-,N/A,,Mostly Cloudy,0,2013-07-18 20:15:00
4:35 PM,86.0,75.0,70,30.14,10.0,Calm,Calm,-,N/A,,Scattered Clouds,0,2013-07-18 20:35:00
4:55 PM,87.8,75.0,66,30.13,10.0,Calm,Calm,-,N/A,,Mostly Cloudy,0,2013-07-18 20:55:00
5:15 PM,87.4,76.5,70,30.13,10.0,SW,4.6,-,N/A,,Scattered Clouds,220,2013-07-18 21:15:00
6:15 PM,88.0,75.4,66,30.12,10.0,Calm,Calm,-,N/A,,Clear,0,2013-07-18 22:15:00
6:35 PM,87.6,75.6,67,30.12,10.0,Calm,Calm,-,N/A,,Clear,0,2013-07-18 22:35:00
6:55 PM,86.0,75.2,70,30.12,10.0,Calm,Calm,-,N/A,,Mostly Cloudy,0,2013-07-18 22:55:00
7:15 PM,83.8,77.0,80,30.12,10.0,Calm,Calm,-,N/A,,Scattered Clouds,0,2013-07-18 23:15:00
7:35 PM,81.7,76.5,84,30.13,10.0,Calm,Calm,-,N/A,,Clear,0,2013-07-18 23:35:00
7:55 PM,80.1,78.1,94,30.14,10.0,Calm,Calm,-,N/A,,Clear,0,2013-07-18 23:55:00
8:15 PM,79.7,77.4,93,30.14,10.0,Calm,Calm,-,N/A,,Clear,0,2013-07-19 00:15:00
8:35 PM,78.4,77.5,97,30.14,10.0,Calm,Calm,-,N/A,,Clear,0,2013-07-19 00:35:00
8:55 PM,77.9,77.2,98,30.15,10.0,Calm,Calm,-,N/A,,Clear,0,2013-07-19 00:55:00
9:15 PM,77.0,77.0,100,30.15,10.0,Calm,Calm,-,N/A,,Clear,0,2013-07-19 01:15:00
9:35 PM,76.3,76.3,100,30.15,7.0,Calm,Calm,-,N/A,,Clear,0,2013-07-19 01:35:00
9:55 PM,76.1,76.1,100,30.16,7.0,Calm,Calm,-,N/A,,Clear,0,2013-07-19 01:55:00
10:15 PM,75.6,75.6,100,30.16,7.0,Calm,Calm,-,N/A,,Clear,0,2013-07-19 02:15:00
10:35 PM,75.4,75.4,100,30.16,7.0,Calm,Calm,-,N/A,,Clear,0,2013-07-19 02:35:00
10:55 PM,75.2,75.2,100,30.17,5.0,Calm,Calm,-,N/A,,Clear,0,2013-07-19 02:55:00
11:15 PM,75.0,75.0,100,30.17,4.0,Calm,Calm,-,N/A,,Clear,0,2013-07-19 03:15:00
11:35 PM,74.7,74.7,100,30.17,5.0,Calm,Calm,-,N/A,,Clear,0,2013-07-19 03:35:00
11:55 PM,74.5,74.5,100,30.17,4.0,Calm,Calm,-,N/A,,Clear,0,2013-07-19 03:55:00